Atmospheric History
12/06/2017 18:39  to  12/7/2017 18:39
Change End Date:
To complete the export process:
1) Select all of the data below
2) Copy the data to the clipboard
3) Open a word processor such as Notepad
4) Paste the data into the word processor
5) Save the file

Date/Time (MST), AirTemp, RH, Dewpoint ,AvgWindSpeed, GustWindSpeed, WindDirection, PrecipType, PrecipIntensity, PrecipAccumulation, PrecipRate
12/07/2017 18:33, 33, 60, 21 ,22, 26, N, None, None, ,  
12/07/2017 18:30, 33, 61, 21 ,22, 26, N, None, None, ,  
12/07/2017 18:19, 32, 62, 21 ,20, 24, N, None, None, ,  
12/07/2017 18:18, 33, 62, 21 ,21, 25, N, None, None, ,  
12/07/2017 18:09, 32, 63, 22 ,21, 25, N, None, None, ,  
12/07/2017 18:03, 32, 64, 22 ,21, 24, N, None, None, ,  
12/07/2017 17:59, 32, 65, 22 ,20, 24, N, None, None, ,  
12/07/2017 17:49, 33, 64, 22 ,18, 24, N, None, None, ,  
12/07/2017 17:48, 33, 65, 22 ,19, 24, N, None, None, ,  
12/07/2017 17:39, 33, 64, 22 ,18, 24, NW, None, None, ,  
12/07/2017 17:33, 33, 64, 22 ,19, 24, N, None, None, ,  
12/07/2017 17:29, 33, 65, 23 ,19, 24, N, None, None, ,  
12/07/2017 17:19, 34, 63, 23 ,21, 27, N, None, None, ,  
12/07/2017 17:18, 33, 63, 23 ,21, 27, N, None, None, ,  
12/07/2017 17:09, 33, 64, 23 ,20, 27, N, None, None, ,  
12/07/2017 17:03, 34, 64, 23 ,21, 29, N, None, None, ,  
12/07/2017 16:59, 34, 63, 23 ,24, 29, N, None, None, ,  
12/07/2017 16:49, 34, 63, 23 ,23, 28, NW, None, None, ,  
12/07/2017 16:48, 34, 63, 23 ,23, 28, NW, None, None, ,  
12/07/2017 16:39, 34, 64, 23 ,24, 27, N, None, None, ,  
12/07/2017 16:33, 34, 65, 24 ,22, 26, N, None, None, ,  
12/07/2017 16:29, 34, 64, 24 ,21, 26, N, None, None, ,  
12/07/2017 16:19, 35, 62, 23 ,22, 26, NW, None, None, ,  
12/07/2017 16:18, 35, 63, 23 ,22, 26, N, None, None, ,  
12/07/2017 16:09, 35, 63, 23 ,22, 25, N, None, None, ,  
12/07/2017 16:03, 34, 64, 23 ,19, 24, N, None, None, ,  
12/07/2017 15:59, 34, 64, 23 ,19, 24, NW, None, None, ,  
12/07/2017 15:49, 33, 65, 23 ,19, 23, NW, None, None, ,  
12/07/2017 15:48, 33, 65, 23 ,18, 23, NW, None, None, ,  
12/07/2017 15:39, 33, 65, 23 ,19, 24, NW, None, None, ,  
12/07/2017 15:33, 34, 65, 23 ,19, 25, NW, None, None, ,  
12/07/2017 15:29, 34, 65, 23 ,20, 26, NW, None, None, ,  
12/07/2017 15:19, 34, 64, 23 ,19, 24, NW, None, None, ,  
12/07/2017 15:18, 34, 64, 23 ,20, 24, NW, None, None, ,  
12/07/2017 15:09, 34, 66, 24 ,16, 21, NW, None, None, ,  
12/07/2017 15:03, 34, 66, 24 ,15, 22, NW, None, None, ,  
12/07/2017 14:58, 34, 65, 24 ,17, 26, NW, None, None, ,  
12/07/2017 14:48, 34, 66, 24 ,20, 24, NW, None, None, ,  
12/07/2017 14:48, 34, 66, 24 ,19, 24, NW, None, None, ,  
12/07/2017 14:38, 34, 65, 23 ,18, 24, NW, None, None, ,  
12/07/2017 14:33, 34, 66, 24 ,19, 24, N, None, None, ,  
12/07/2017 14:28, 33, 66, 24 ,18, 24, N, None, None, ,  
12/07/2017 14:18, 33, 68, 24 ,18, 26, N, None, None, ,  
12/07/2017 14:18, 33, 68, 24 ,18, 26, N, None, None, ,  
12/07/2017 14:08, 33, 68, 24 ,21, 27, N, None, None, ,  
12/07/2017 14:03, 33, 68, 24 ,20, 28, N, None, None, ,  
12/07/2017 13:58, 33, 67, 23 ,22, 30, N, None, None, ,  
12/07/2017 13:48, 33, 67, 23 ,22, 30, N, None, None, ,  
12/07/2017 13:38, 33, 68, 23 ,23, 28, N, None, None, ,  
12/07/2017 13:33, 32, 68, 23 ,22, 29, N, None, None, ,  
12/07/2017 13:28, 32, 68, 23 ,24, 29, N, None, None, ,  
12/07/2017 13:18, 32, 69, 23 ,22, 30, N, None, None, ,  
12/07/2017 13:18, 32, 69, 23 ,22, 30, N, None, None, ,  
12/07/2017 13:08, 32, 69, 23 ,24, 31, N, None, None, ,  
12/07/2017 13:03, 32, 70, 23 ,27, 32, N, None, None, ,  
12/07/2017 12:58, 32, 69, 23 ,26, 35, N, None, None, ,  
12/07/2017 12:48, 32, 70, 23 ,29, 34, N, None, None, ,  
12/07/2017 12:48, 31, 70, 23 ,29, 34, N, None, None, ,  
12/07/2017 12:38, 32, 67, 22 ,29, 36, N, None, None, ,  
12/07/2017 12:33, 32, 67, 22 ,29, 33, N, None, None, ,  
12/07/2017 12:28, 31, 68, 22 ,27, 33, N, None, None, ,  
12/07/2017 12:18, 31, 67, 22 ,29, 34, N, None, None, ,  
12/07/2017 12:18, 31, 67, 22 ,29, 34, N, None, None, ,  
12/07/2017 12:08, 31, 67, 21 ,25, 31, N, None, None, ,  
12/07/2017 12:05, 31, 65, 21 ,25, 29, N, None, None, ,  
12/07/2017 11:58, 31, 65, 21 ,24, 29, N, None, None, ,  
12/07/2017 11:48, 31, 63, 20 ,21, 27, N, None, None, ,  
12/07/2017 11:48, 31, 63, 20 ,21, 27, N, None, None, ,  
12/07/2017 11:38, 31, 63, 20 ,22, 29, N, None, None, ,  
12/07/2017 11:33, 31, 63, 20 ,23, 29, N, None, None, ,  
12/07/2017 11:28, 31, 63, 20 ,24, 29, N, None, None, ,  
12/07/2017 11:18, 31, 62, 20 ,25, 30, N, None, None, ,  
12/07/2017 11:18, 31, 62, 20 ,26, 32, N, None, None, ,  
12/07/2017 11:08, 31, 61, 19 ,23, 30, N, None, None, ,  
12/07/2017 11:03, 32, 58, 19 ,25, 30, N, None, None, ,  
12/07/2017 10:58, 31, 58, 19 ,22, 29, N, None, None, ,  
12/07/2017 10:48, 31, 60, 19 ,21, 25, NW, None, None, ,  
12/07/2017 10:48, 31, 59, 19 ,20, 25, NW, None, None, ,  
12/07/2017 10:38, 30, 60, 18 ,19, 22, NW, None, None, ,  
12/07/2017 10:33, 29, 61, 18 ,17, 21, NW, None, None, ,  
12/07/2017 10:27, 29, 61, 18 ,17, 21, NW, None, None, ,  
12/07/2017 10:18, 29, 61, 17 ,18, 22, NW, None, None, ,  
12/07/2017 10:17, 29, 61, 17 ,18, 22, NW, None, None, ,  
12/07/2017 10:07, 28, 62, 17 ,18, 21, NW, None, None, ,  
12/07/2017 10:03, 28, 62, 17 ,17, 23, NW, None, None, ,  
12/07/2017 09:57, 28, 62, 17 ,18, 23, NW, None, None, ,  
12/07/2017 09:48, 28, 60, 16 ,20, 25, NW, None, None, ,  
12/07/2017 09:47, 28, 61, 17 ,21, 25, NW, None, None, ,  
12/07/2017 09:37, 27, 63, 16 ,19, 24, NW, None, None, ,  
12/07/2017 09:33, 27, 63, 16 ,19, 23, NW, None, None, ,  
12/07/2017 09:27, 27, 62, 16 ,19, 24, NW, None, None, ,  
12/07/2017 09:18, 26, 64, 15 ,17, 21, NW, None, None, ,  
12/07/2017 09:17, 25, 64, 15 ,17, 20, NW, None, None, ,  
12/07/2017 09:07, 24, 66, 15 ,14, 21, NW, None, None, ,  
12/07/2017 09:03, 24, 65, 14 ,17, 22, NW, None, None, ,  
12/07/2017 08:57, 24, 65, 14 ,17, 22, NW, None, None, ,  
12/07/2017 08:48, 24, 65, 14 ,16, 19, NW, None, None, ,  
12/07/2017 08:47, 24, 65, 14 ,16, 17, NW, None, None, ,  
12/07/2017 08:37, 19, 77, 13 ,9, 11, NW, None, None, ,  
12/07/2017 08:33, 19, 78, 13 ,9, 11, W, None, None, ,  
12/07/2017 08:27, 19, 78, 13 ,9, 11, W, None, None, ,  
12/07/2017 08:18, 19, 77, 13 ,9, 10, W, None, None, ,  
12/07/2017 08:17, 19, 78, 13 ,9, 10, W, None, None, ,  
12/07/2017 08:07, 19, 77, 13 ,9, 10, W, None, None, ,  
12/07/2017 08:03, 18, 78, 13 ,9, 10, W, None, None, ,  
12/07/2017 07:57, 19, 78, 13 ,9, 12, W, None, None, ,  
12/07/2017 07:48, 19, 80, 13 ,10, 12, W, None, None, ,  
12/07/2017 07:47, 19, 80, 13 ,10, 12, W, None, None, ,  
12/07/2017 07:37, 19, 80, 14 ,9, 13, W, None, None, ,  
12/07/2017 07:33, 20, 76, 14 ,11, 13, NW, None, None, ,  
12/07/2017 07:27, 21, 76, 14 ,12, 14, NW, None, None, ,  
12/07/2017 07:18, 20, 78, 15 ,12, 14, NW, None, None, ,  
12/07/2017 07:17, 21, 78, 15 ,12, 14, NW, None, None, ,  
12/07/2017 07:07, 21, 78, 16 ,12, 15, NW, None, None, ,  
12/07/2017 07:03, 21, 78, 15 ,12, 15, NW, None, None, ,  
12/07/2017 06:57, 21, 77, 16 ,12, 17, NW, None, None, ,  
12/07/2017 06:49, 22, 77, 16 ,14, 17, NW, None, None, ,  
12/07/2017 06:46, 22, 77, 16 ,14, 17, NW, None, None, ,  
12/07/2017 06:36, 21, 77, 15 ,14, 17, NW, None, None, ,  
12/07/2017 06:33, 21, 78, 15 ,13, 16, NW, None, None, ,  
12/07/2017 06:26, 21, 77, 15 ,14, 16, NW, None, None, ,  
12/07/2017 06:18, 21, 78, 15 ,14, 17, NW, None, None, ,  
12/07/2017 06:16, 20, 78, 15 ,14, 17, NW, None, None, ,  
12/07/2017 06:06, 19, 80, 14 ,15, 17, NW, None, None, ,  
12/07/2017 06:03, 19, 80, 14 ,14, 16, NW, None, None, ,  
12/07/2017 05:56, 18, 81, 13 ,11, 13, NW, None, None, ,  
12/07/2017 05:48, 17, 81, 13 ,11, 14, NW, None, None, ,  
12/07/2017 05:46, 18, 81, 13 ,11, 15, NW, None, None, ,  
12/07/2017 05:36, 18, 80, 13 ,14, 17, NW, None, None, ,  
12/07/2017 05:33, 18, 81, 13 ,14, 17, NW, None, None, ,  
12/07/2017 05:26, 19, 81, 14 ,15, 18, NW, None, None, ,  
12/07/2017 05:18, 19, 81, 14 ,15, 18, NW, None, None, ,  
12/07/2017 05:16, 19, 82, 14 ,15, 18, NW, None, None, ,  
12/07/2017 05:06, 18, 82, 13 ,15, 17, NW, None, None, ,  
12/07/2017 05:03, 18, 82, 13 ,15, 17, NW, None, None, ,  
12/07/2017 04:56, 17, 84, 13 ,15, 17, NW, None, None, ,  
12/07/2017 04:48, 14, 85, 10 ,10, 12, NW, None, None, ,  
12/07/2017 04:46, 14, 86, 11 ,11, 12, NW, None, None, ,  
12/07/2017 04:36, 13, 86, 10 ,8, 11, NW, None, None, ,  
12/07/2017 04:33, 13, 87, 10 ,9, 12, NW, None, None, ,  
12/07/2017 04:26, 13, 87, 10 ,10, 12, NW, None, None, ,  
12/07/2017 04:18, 13, 87, 10 ,11, 12, NW, None, None, ,  
12/07/2017 04:16, 13, 87, 10 ,11, 13, NW, None, None, ,  
12/07/2017 04:06, 13, 88, 10 ,12, 14, NW, None, None, ,  
12/07/2017 04:03, 13, 88, 11 ,12, 14, NW, None, None, ,  
12/07/2017 03:55, 13, 88, 10 ,12, 14, NW, None, None, ,  
12/07/2017 03:48, 13, 89, 10 ,12, 14, NW, None, None, ,  
12/07/2017 03:45, 13, 89, 10 ,12, 15, NW, None, None, ,  
12/07/2017 03:35, 13, 89, 10 ,13, 16, NW, None, None, ,  
12/07/2017 03:33, 13, 89, 10 ,14, 16, NW, None, None, ,  
12/07/2017 03:25, 12, 88, 10 ,11, 15, NW, None, None, ,  
12/07/2017 03:18, 13, 88, 10 ,13, 15, NW, None, None, ,  
12/07/2017 03:15, 13, 88, 10 ,12, 15, NW, None, None, ,  
12/07/2017 03:05, 13, 88, 11 ,14, 16, NW, None, None, ,  
12/07/2017 03:03, 13, 88, 11 ,14, 15, NW, None, None, ,  
12/07/2017 02:55, 13, 88, 11 ,12, 15, NW, None, None, ,  
12/07/2017 02:48, 13, 88, 11 ,13, 16, NW, None, None, ,  
12/07/2017 02:45, 13, 89, 11 ,14, 16, NW, None, None, ,  
12/07/2017 02:35, 13, 89, 11 ,14, 16, NW, None, None, ,  
12/07/2017 02:33, 13, 88, 11 ,14, 16, NW, None, None, ,  
12/07/2017 02:25, 14, 89, 11 ,15, 16, NW, None, None, ,  
12/07/2017 02:18, 14, 88, 11 ,14, 17, NW, None, None, ,  
12/07/2017 02:15, 14, 88, 11 ,15, 17, NW, None, None, ,  
12/07/2017 02:05, 14, 89, 11 ,14, 17, NW, None, None, ,  
12/07/2017 02:03, 14, 89, 11 ,14, 17, NW, None, None, ,  
12/07/2017 01:55, 13, 89, 11 ,15, 17, NW, None, None, ,  
12/07/2017 01:48, 13, 89, 11 ,16, 17, NW, None, None, ,  
12/07/2017 01:45, 13, 90, 11 ,16, 16, NW, None, None, ,  
12/07/2017 01:35, 13, 89, 10 ,13, 15, NW, None, None, ,  
12/07/2017 01:33, 13, 89, 10 ,12, 15, NW, None, None, ,  
12/07/2017 01:25, 14, 89, 11 ,13, 14, NW, None, None, ,  
12/07/2017 01:18, 14, 88, 12 ,12, 14, NW, None, None, ,  
12/07/2017 01:15, 15, 88, 12 ,12, 14, N, None, None, ,  
12/07/2017 01:05, 16, 88, 13 ,13, 14, N, None, None, ,  
12/07/2017 01:03, 16, 88, 13 ,14, 14, N, None, None, ,  
12/07/2017 00:55, 17, 88, 14 ,14, 16, N, None, None, ,  
12/07/2017 00:48, 17, 88, 14 ,13, 16, N, None, None, ,  
12/07/2017 00:45, 17, 88, 14 ,13, 16, N, None, None, ,  
12/07/2017 00:35, 17, 88, 14 ,13, 14, N, None, None, ,  
12/07/2017 00:33, 17, 88, 14 ,13, 14, N, None, None, ,  
12/07/2017 00:24, 17, 88, 14 ,12, 16, N, None, None, ,  
12/07/2017 00:18, 17, 88, 14 ,13, 16, N, None, None, ,  
12/07/2017 00:14, 17, 88, 14 ,14, 17, N, None, None, ,  
12/07/2017 00:04, 17, 88, 14 ,16, 18, N, None, None, ,  
12/07/2017 00:04, 17, 88, 14 ,16, 18, N, None, None, ,  
12/06/2017 23:54, 16, 88, 13 ,16, 18, N, None, None, ,  
12/06/2017 23:49, 16, 88, 13 ,16, 19, NW, None, None, ,  
12/06/2017 23:44, 16, 88, 14 ,17, 19, NW, None, None, ,  
12/06/2017 23:34, 16, 89, 14 ,16, 18, NW, None, None, ,  
12/06/2017 23:34, 16, 89, 14 ,16, 18, NW, None, None, ,  
12/06/2017 23:24, 16, 90, 14 ,16, 18, NW, None, None, ,  
12/06/2017 23:19, 15, 90, 13 ,14, 18, NW, None, None, ,  
12/06/2017 23:14, 15, 90, 12 ,16, 19, NW, None, None, ,  
12/06/2017 23:04, 14, 90, 11 ,16, 18, NW, None, None, ,  
12/06/2017 23:04, 14, 90, 11 ,16, 18, NW, None, None, ,  
12/06/2017 22:54, 13, 89, 11 ,16, 18, N, None, None, ,  
12/06/2017 22:49, 13, 89, 11 ,16, 19, NW, None, None, ,  
12/06/2017 22:44, 14, 90, 11 ,16, 19, NW, None, None, ,  
12/06/2017 22:34, 14, 90, 11 ,16, 18, N, None, None, ,  
12/06/2017 22:34, 14, 90, 11 ,16, 18, N, None, None, ,  
12/06/2017 22:24, 14, 90, 12 ,16, 17, NW, None, None, ,  
12/06/2017 22:19, 14, 90, 12 ,16, 17, NW, None, None, ,  
12/06/2017 22:14, 14, 90, 12 ,15, 17, N, None, None, ,  
12/06/2017 22:04, 14, 90, 12 ,14, 18, N, None, None, ,  
12/06/2017 22:04, 14, 90, 12 ,14, 18, N, None, None, ,  
12/06/2017 21:54, 14, 90, 12 ,15, 19, N, None, None, ,  
12/06/2017 21:49, 14, 90, 12 ,16, 19, N, None, None, ,  
12/06/2017 21:44, 15, 90, 12 ,14, 19, N, None, None, ,  
12/06/2017 21:34, 14, 90, 12 ,17, 22, N, None, None, ,  
12/06/2017 21:34, 14, 90, 12 ,17, 22, N, None, None, ,  
12/06/2017 21:24, 14, 90, 12 ,19, 22, N, None, None, ,  
12/06/2017 21:19, 14, 90, 12 ,17, 22, N, None, None, ,  
12/06/2017 21:14, 14, 90, 12 ,17, 22, N, None, None, ,  
12/06/2017 21:04, 14, 90, 12 ,19, 21, N, None, None, ,  
12/06/2017 21:04, 14, 90, 12 ,19, 21, N, None, None, ,  
12/06/2017 20:54, 14, 90, 12 ,18, 21, N, None, None, ,  
12/06/2017 20:49, 14, 90, 12 ,18, 20, N, None, None, ,  
12/06/2017 20:44, 14, 90, 12 ,17, 20, N, None, None, ,  
12/06/2017 20:34, 14, 90, 12 ,17, 20, N, None, None, ,  
12/06/2017 20:23, 14, 90, 11 ,16, 19, N, None, None, ,  
12/06/2017 20:19, 13, 90, 11 ,16, 19, N, None, None, ,  
12/06/2017 20:13, 14, 90, 11 ,17, 19, N, None, None, ,  
12/06/2017 20:04, 13, 89, 11 ,14, 18, N, None, None, ,  
12/06/2017 20:03, 13, 89, 11 ,14, 18, N, None, None, ,  
12/06/2017 19:53, 13, 89, 10 ,15, 18, N, None, None, ,  
12/06/2017 19:49, 13, 89, 10 ,16, 18, N, None, None, ,  
12/06/2017 19:43, 12, 89, 10 ,16, 17, N, None, None, ,  
12/06/2017 19:34, 12, 89, 10 ,15, 17, N, None, None, ,  
12/06/2017 19:33, 12, 89, 10 ,15, 17, N, None, None, ,  
12/06/2017 19:23, 12, 89, 10 ,14, 16, N, None, None, ,  
12/06/2017 19:19, 12, 89, 10 ,13, 16, N, None, None, ,  
12/06/2017 19:13, 12, 89, 9 ,13, 15, N, None, None, ,  
12/06/2017 19:03, 12, 89, 9 ,11, 14, N, None, None, ,  
12/06/2017 19:03, 11, 89, 9 ,11, 14, N, None, None, ,  
12/06/2017 18:53, 11, 89, 9 ,11, 12, NW, None, None, ,  
12/06/2017 18:49, 12, 89, 9 ,11, 13, NW, None, None, ,  
12/06/2017 18:43, 12, 89, 10 ,12, 15, N, None, None, ,  
Change End Date:

Copyright © 1998-2015 Vaisala, Inc.
All Rights Reserved
Send comments about the data to:
SCAN Web ® is a registered trademark of Vaisala, Inc.
SCAN Web Version 6.0